Time,TemperatureF,DewpointF,PressureIn,WindDirection,WindDirectionDegrees,WindSpeedMPH,WindSpeedGustMPH,Humidity,HourlyPrecipIn,Conditions,Clouds,dailyrainin,SoftwareType,DateUTC
2013-02-14 00:01:00,8.0,5.0,-100.00,SE,145,5.0,6.0,88,0.00,,,-99.99,,2013-02-14 07:01:00,
2013-02-14 00:11:00,8.0,5.0,-100.00,SE,145,1.0,6.0,88,0.00,,,-99.99,,2013-02-14 07:11:00,
2013-02-14 00:21:00,8.0,5.0,-100.00,NE,40,1.0,4.0,88,0.00,,,-99.99,,2013-02-14 07:21:00,
2013-02-14 00:32:00,8.0,5.0,-100.00,East,85,1.0,4.0,88,0.00,,,-99.99,,2013-02-14 07:32:00,
2013-02-14 00:41:00,7.0,5.0,-100.00,North,10,1.0,4.0,88,0.00,,,-99.99,,2013-02-14 07:41:00,
2013-02-14 00:51:00,8.0,5.0,-100.00,NNE,30,4.0,7.0,88,0.00,,,-99.99,,2013-02-14 07:51:00,
2013-02-14 01:01:00,7.0,4.0,-100.00,NE,50,2.0,6.0,87,0.00,,,-99.99,,2013-02-14 08:01:00,
2013-02-14 01:11:00,6.0,3.0,-100.00,East,95,2.0,3.0,87,0.00,,,-99.99,,2013-02-14 08:11:00,
2013-02-14 01:21:00,7.0,4.0,-100.00,NNE,25,2.0,6.0,87,0.00,,,-99.99,,2013-02-14 08:21:00,
2013-02-14 01:32:00,8.0,5.0,-100.00,NE,40,6.0,8.0,87,0.00,,,-99.99,,2013-02-14 08:32:00,
2013-02-14 01:43:00,8.0,5.0,-100.00,NNE,20,4.0,8.0,87,0.00,,,-99.99,,2013-02-14 08:43:00,
2013-02-14 01:52:00,7.0,4.0,-100.00,NNE,30,3.0,7.0,87,0.00,,,-99.99,,2013-02-14 08:52:00,
2013-02-14 02:01:00,7.0,4.0,-100.00,NNE,30,4.0,6.0,87,0.00,,,-99.99,,2013-02-14 09:01:00,
2013-02-14 02:11:00,8.0,5.0,-100.00,NE,35,4.0,7.0,87,0.00,,,-99.99,,2013-02-14 09:11:00,
2013-02-14 02:21:00,8.0,5.0,-100.00,NNE,20,4.0,7.0,87,0.00,,,-99.99,,2013-02-14 09:21:00,
2013-02-14 02:32:00,8.0,5.0,-100.00,North,0,3.0,7.0,87,0.00,,,-99.99,,2013-02-14 09:32:00,
2013-02-14 02:42:00,8.0,5.0,-100.00,NNE,30,5.0,7.0,87,0.00,,,-99.99,,2013-02-14 09:42:00,
2013-02-14 02:52:00,8.0,5.0,-100.00,NNE,30,5.0,9.0,87,0.00,,,-99.99,,2013-02-14 09:52:00,
2013-02-14 03:02:00,8.0,6.0,-100.00,NNE,30,6.0,9.0,87,0.00,,,-99.99,,2013-02-14 10:02:00,
2013-02-14 03:11:00,8.0,6.0,-100.00,NNE,20,5.0,9.0,87,0.00,,,-99.99,,2013-02-14 10:11:00,
2013-02-14 03:21:00,9.0,6.0,-100.00,NE,35,5.0,8.0,87,0.00,,,-99.99,,2013-02-14 10:21:00,
2013-02-14 03:31:00,9.0,6.0,-100.00,NNE,25,6.0,7.0,88,0.00,,,-99.99,,2013-02-14 10:31:00,
2013-02-14 03:42:00,9.0,6.0,-100.00,North,10,5.0,9.0,88,0.00,,,-99.99,,2013-02-14 10:42:00,
2013-02-14 03:52:00,9.0,6.0,-100.00,NNE,15,4.0,7.0,88,0.00,,,-99.99,,2013-02-14 10:52:00,
2013-02-14 04:02:00,9.0,6.0,-100.00,NNE,15,4.0,7.0,88,0.00,,,-99.99,,2013-02-14 11:02:00,
2013-02-14 04:11:00,9.0,6.0,-100.00,NE,45,4.0,7.0,88,0.00,,,-99.99,,2013-02-14 11:11:00,
2013-02-14 04:21:00,9.0,6.0,-100.00,NNE,30,4.0,7.0,88,0.00,,,-99.99,,2013-02-14 11:21:00,
2013-02-14 04:32:00,9.0,6.0,-100.00,NNE,30,4.0,8.0,88,0.00,,,-99.99,,2013-02-14 11:32:00,
2013-02-14 04:42:00,8.0,6.0,-100.00,NNE,30,4.0,7.0,88,0.00,,,-99.99,,2013-02-14 11:42:00,
2013-02-14 04:52:00,9.0,6.0,-100.00,NE,40,4.0,7.0,88,0.00,,,-99.99,,2013-02-14 11:52:00,
2013-02-14 05:02:00,8.0,5.0,-100.00,NE,45,1.0,6.0,88,0.00,,,-99.99,,2013-02-14 12:02:00,
2013-02-14 05:12:00,8.0,6.0,-100.00,NE,40,4.0,6.0,88,0.00,,,-99.99,,2013-02-14 12:12:00,
2013-02-14 05:22:00,8.0,5.0,-100.00,ENE,65,2.0,6.0,88,0.00,,,-99.99,,2013-02-14 12:22:00,
2013-02-14 05:32:00,8.0,6.0,-100.00,NE,40,4.0,7.0,88,0.00,,,-99.99,,2013-02-14 12:32:00,
2013-02-14 05:42:00,9.0,6.0,-100.00,North,10,3.0,7.0,88,0.00,,,-99.99,,2013-02-14 12:42:00,
2013-02-14 05:53:00,9.0,6.0,-100.00,NNE,15,4.0,7.0,88,0.00,,,-99.99,,2013-02-14 12:53:00,
2013-02-14 06:01:00,9.0,6.0,-100.00,NE,35,4.0,8.0,88,0.00,,,-99.99,,2013-02-14 13:01:00,
2013-02-14 06:11:00,8.0,6.0,-100.00,NE,35,5.0,7.0,88,0.00,,,-99.99,,2013-02-14 13:11:00,
2013-02-14 06:21:00,8.0,5.0,-100.00,NE,50,4.0,7.0,88,0.00,,,-99.99,,2013-02-14 13:21:00,
2013-02-14 06:31:00,8.0,5.0,-100.00,NNE,20,2.0,5.0,88,0.00,,,-99.99,,2013-02-14 13:31:00,
2013-02-14 06:42:00,8.0,5.0,-100.00,NE,50,4.0,6.0,88,0.00,,,-99.99,,2013-02-14 13:42:00,
2013-02-14 06:52:00,8.0,5.0,-100.00,East,100,4.0,7.0,88,0.00,,,-99.99,,2013-02-14 13:52:00,
2013-02-14 07:01:00,8.0,5.0,-100.00,NNE,25,4.0,6.0,88,0.00,,,-99.99,,2013-02-14 14:01:00,
2013-02-14 07:11:00,8.0,5.0,-100.00,NE,50,4.0,7.0,88,0.00,,,-99.99,,2013-02-14 14:11:00,
2013-02-14 07:21:00,8.0,5.0,-100.00,NNE,20,3.0,6.0,88,0.00,,,-99.99,,2013-02-14 14:21:00,
2013-02-14 07:31:00,8.0,5.0,-100.00,NNE,25,6.0,7.0,88,0.10,,,-99.99,,2013-02-14 14:31:00,
2013-02-14 07:41:00,8.0,5.0,-100.00,North,5,6.0,10.0,88,0.10,,,-99.99,,2013-02-14 14:41:00,
2013-02-14 07:52:00,8.0,6.0,-100.00,NNE,20,3.0,7.0,88,0.00,,,-99.99,,2013-02-14 14:52:00,
2013-02-14 08:01:00,8.0,5.0,-100.00,NE,50,2.0,7.0,88,0.10,,,-99.99,,2013-02-14 15:01:00,
2013-02-14 08:11:00,8.0,6.0,-100.00,NE,55,3.0,8.0,88,0.10,,,-99.99,,2013-02-14 15:11:00,
2013-02-14 08:21:00,9.0,6.0,-100.00,ESE,105,3.0,8.0,88,0.00,,,-99.99,,2013-02-14 15:21:00,
2013-02-14 08:32:00,9.0,6.0,-100.00,NNE,25,3.0,6.0,88,0.10,,,-99.99,,2013-02-14 15:32:00,
2013-02-14 08:41:00,10.0,7.0,-100.00,North,0,2.0,7.0,88,0.00,,,-99.99,,2013-02-14 15:41:00,
2013-02-14 08:52:00,10.0,7.0,-100.00,North,0,2.0,6.0,88,0.10,,,-99.99,,2013-02-14 15:52:00,
2013-02-14 09:01:00,10.0,7.0,-100.00,North,355,1.0,6.0,88,0.00,,,-99.99,,2013-02-14 16:01:00,
2013-02-14 09:11:00,10.0,7.0,-100.00,North,0,3.0,6.0,88,0.10,,,-99.99,,2013-02-14 16:11:00,
2013-02-14 09:21:00,11.0,8.0,-100.00,NW,320,5.0,7.0,88,0.00,,,-99.99,,2013-02-14 16:21:00,
2013-02-14 09:32:00,11.0,8.0,-100.00,North,0,6.0,11.0,88,0.20,,,-99.99,,2013-02-14 16:32:00,
2013-02-14 09:41:00,12.0,9.0,-100.00,North,0,6.0,11.0,88,0.10,,,-99.99,,2013-02-14 16:41:00,
2013-02-14 09:51:00,12.0,9.0,-100.00,North,0,7.0,16.0,88,0.00,,,-99.99,,2013-02-14 16:51:00,
2013-02-14 10:01:00,12.0,9.0,-100.00,North,0,8.0,12.0,88,0.00,,,-99.99,,2013-02-14 17:01:00,
2013-02-14 10:11:00,13.0,10.0,-100.00,NW,320,4.0,12.0,88,0.00,,,-99.99,,2013-02-14 17:11:00,
2013-02-14 10:21:00,13.0,10.0,-100.00,NW,325,6.0,11.0,88,0.00,,,-99.99,,2013-02-14 17:21:00,
2013-02-14 10:31:00,14.0,11.0,-100.00,North,0,4.0,10.0,88,0.10,,,-99.99,,2013-02-14 17:31:00,
2013-02-14 10:42:00,14.0,11.0,-100.00,North,0,5.0,12.0,88,0.00,,,-99.99,,2013-02-14 17:42:00,
2013-02-14 10:52:00,13.0,11.0,-100.00,North,355,5.0,10.0,88,0.10,,,-99.99,,2013-02-14 17:52:00,
2013-02-14 11:01:00,13.0,10.0,-100.00,North,0,6.0,12.0,88,0.00,,,-99.99,,2013-02-14 18:01:00,
2013-02-14 11:11:00,13.0,10.0,-100.00,NNW,345,6.0,14.0,88,0.10,,,-99.99,,2013-02-14 18:11:00,
2013-02-14 11:23:00,14.0,12.0,-100.00,South,180,4.0,7.0,89,0.20,,,-99.99,,2013-02-14 18:23:00,
2013-02-14 11:32:00,13.0,10.0,-100.00,South,185,4.0,11.0,88,0.10,,,-99.99,,2013-02-14 18:32:00,
2013-02-14 11:42:00,12.0,10.0,-100.00,SE,130,4.0,10.0,88,0.10,,,-99.99,,2013-02-14 18:42:00,
2013-02-14 11:51:00,13.0,11.0,-100.00,South,180,4.0,8.0,88,0.20,,,-99.99,,2013-02-14 18:51:00,
2013-02-14 12:02:00,13.0,11.0,-100.00,SSW,205,3.0,9.0,88,0.40,,,-99.99,,2013-02-14 19:02:00,
2013-02-14 12:11:00,12.0,10.0,-100.00,NE,50,3.0,7.0,88,0.60,,,-99.99,,2013-02-14 19:11:00,
2013-02-14 12:21:00,12.0,9.0,-100.00,NE,35,3.0,7.0,88,0.10,,,-99.99,,2013-02-14 19:21:00,
2013-02-14 12:31:00,13.0,10.0,-100.00,SE,125,3.0,7.0,88,0.10,,,-99.99,,2013-02-14 19:31:00,
2013-02-14 12:41:00,14.0,11.0,-100.00,South,175,6.0,7.0,88,0.10,,,-99.99,,2013-02-14 19:41:00,
2013-02-14 12:51:00,13.0,11.0,-100.00,SSE,150,6.0,9.0,88,0.20,,,-99.99,,2013-02-14 19:51:00,
2013-02-14 13:01:00,14.0,12.0,-100.00,South,175,6.0,9.0,88,0.20,,,-99.99,,2013-02-14 20:01:00,
2013-02-14 13:11:00,14.0,11.0,-100.00,South,175,7.0,10.0,89,0.20,,,-99.99,,2013-02-14 20:11:00,
2013-02-14 13:21:00,14.0,11.0,-100.00,South,180,5.0,11.0,89,0.40,,,-99.99,,2013-02-14 20:21:00,
2013-02-14 13:31:00,15.0,12.0,-100.00,South,185,3.0,8.0,89,0.40,,,-99.99,,2013-02-14 20:31:00,
2013-02-14 13:41:00,15.0,12.0,-100.00,SE,140,3.0,9.0,89,0.20,,,-99.99,,2013-02-14 20:41:00,
2013-02-14 13:52:00,14.0,12.0,-100.00,ESE,120,2.0,7.0,89,0.20,,,-99.99,,2013-02-14 20:52:00,
2013-02-14 14:02:00,14.0,12.0,-100.00,SSE,165,4.0,6.0,89,0.20,,,-99.99,,2013-02-14 21:02:00,
2013-02-14 14:11:00,14.0,11.0,-100.00,SSE,165,7.0,11.0,89,0.80,,,-99.99,,2013-02-14 21:11:00,
2013-02-14 14:21:00,13.0,11.0,-100.00,SSE,150,7.0,11.0,89,0.10,,,-99.99,,2013-02-14 21:21:00,
2013-02-14 14:31:00,13.0,11.0,-100.00,SSE,155,4.0,11.0,89,0.40,,,-99.99,,2013-02-14 21:31:00,
2013-02-14 14:42:00,13.0,11.0,-100.00,SSE,160,6.0,7.0,89,0.20,,,-99.99,,2013-02-14 21:42:00,
2013-02-14 14:51:00,14.0,12.0,-100.00,SSE,150,2.0,7.0,89,0.80,,,-99.99,,2013-02-14 21:51:00,
2013-02-14 15:02:00,14.0,11.0,-100.00,SSE,150,4.0,7.0,89,0.30,,,-99.99,,2013-02-14 22:02:00,
2013-02-14 15:11:00,14.0,11.0,-100.00,SSE,150,2.0,7.0,89,0.30,,,-99.99,,2013-02-14 22:11:00,
2013-02-14 15:21:00,14.0,12.0,-100.00,SSE,155,5.0,7.0,89,0.20,,,-99.99,,2013-02-14 22:21:00,
2013-02-14 15:31:00,15.0,12.0,-100.00,South,185,3.0,9.0,89,1.20,,,-99.99,,2013-02-14 22:31:00,
2013-02-14 15:42:00,13.0,11.0,-100.00,SSE,155,5.0,8.0,89,0.50,,,-99.99,,2013-02-14 22:42:00,
2013-02-14 15:52:00,13.0,11.0,-100.00,East,95,1.0,9.0,89,1.30,,,-99.99,,2013-02-14 22:52:00,
2013-02-14 16:01:00,13.0,11.0,-100.00,South,175,4.0,7.0,89,1.70,,,-99.99,,2013-02-14 23:01:00,
2013-02-14 16:11:00,13.0,11.0,-100.00,SE,125,4.0,8.0,89,2.70,,,-99.99,,2013-02-14 23:11:00,
2013-02-14 16:21:00,13.0,11.0,-100.00,South,175,4.0,6.0,89,0.90,,,-99.99,,2013-02-14 23:21:00,
2013-02-14 16:32:00,13.0,11.0,-100.00,SE,145,4.0,6.0,89,1.90,,,-99.99,,2013-02-14 23:32:00,
2013-02-14 16:41:00,13.0,10.0,-100.00,SSW,200,4.0,7.0,89,1.60,,,-99.99,,2013-02-14 23:41:00,
2013-02-14 16:52:00,12.0,10.0,-100.00,ESE,110,2.0,7.0,89,1.30,,,-99.99,,2013-02-14 23:52:00,
2013-02-14 17:01:00,12.0,10.0,-100.00,SSE,165,1.0,7.0,89,2.30,,,-99.99,,2013-02-15 00:01:00,
2013-02-14 17:11:00,12.0,10.0,-100.00,South,190,4.0,7.0,89,0.50,,,-99.99,,2013-02-15 00:11:00,
2013-02-14 17:22:00,12.0,10.0,-100.00,NE,40,3.0,9.0,89,1.00,,,-99.99,,2013-02-15 00:22:00,
2013-02-14 17:32:00,12.0,9.0,-100.00,ESE,105,2.0,9.0,89,0.20,,,-99.99,,2013-02-15 00:32:00,
2013-02-14 17:42:00,12.0,9.0,-100.00,North,0,4.0,9.0,89,0.30,,,-99.99,,2013-02-15 00:42:00,
2013-02-14 17:51:00,11.0,9.0,-100.00,NE,35,4.0,11.0,89,0.20,,,-99.99,,2013-02-15 00:51:00,
2013-02-14 18:02:00,11.0,9.0,-100.00,NE,35,4.0,10.0,89,0.10,,,-99.99,,2013-02-15 01:02:00,
2013-02-14 18:11:00,11.0,9.0,-100.00,ESE,110,4.0,9.0,89,0.00,,,-99.99,,2013-02-15 01:11:00,
2013-02-14 18:21:00,11.0,8.0,-100.00,NNE,20,4.0,7.0,89,0.00,,,-99.99,,2013-02-15 01:21:00,
2013-02-14 18:31:00,10.0,8.0,-100.00,ENE,60,4.0,9.0,89,0.00,,,-99.99,,2013-02-15 01:31:00,
2013-02-14 18:41:00,10.0,8.0,-100.00,NNE,30,4.0,6.0,89,0.10,,,-99.99,,2013-02-15 01:41:00,
2013-02-14 18:51:00,10.0,7.0,-100.00,NE,50,4.0,12.0,88,0.00,,,-99.99,,2013-02-15 01:51:00,
2013-02-14 19:01:00,10.0,7.0,-100.00,NNE,30,3.0,7.0,88,0.00,,,-99.99,,2013-02-15 02:01:00,
2013-02-14 19:11:00,9.0,7.0,-100.00,North,0,3.0,9.0,88,0.00,,,-99.99,,2013-02-15 02:11:00,
2013-02-14 19:21:00,9.0,6.0,-100.00,NNE,25,4.0,7.0,88,0.00,,,-99.99,,2013-02-15 02:21:00,
2013-02-14 19:31:00,9.0,6.0,-100.00,ENE,60,6.0,9.0,88,0.00,,,-99.99,,2013-02-15 02:31:00,
2013-02-14 19:41:00,8.0,6.0,-100.00,NNE,30,4.0,8.0,88,0.00,,,-99.99,,2013-02-15 02:41:00,
2013-02-14 19:52:00,8.0,5.0,-100.00,NE,45,4.0,7.0,88,0.00,,,-99.99,,2013-02-15 02:52:00,
2013-02-14 20:02:00,7.0,4.0,-100.00,NE,40,4.0,6.0,88,0.00,,,-99.99,,2013-02-15 03:02:00,
2013-02-14 20:11:00,7.0,4.0,-100.00,NE,35,4.0,7.0,88,0.00,,,-99.99,,2013-02-15 03:11:00,
2013-02-14 20:22:00,7.0,4.0,-100.00,North,5,4.0,7.0,88,0.00,,,-99.99,,2013-02-15 03:22:00,
2013-02-14 20:32:00,7.0,4.0,-100.00,North,10,3.0,7.0,88,0.00,,,-99.99,,2013-02-15 03:32:00,
2013-02-14 20:42:00,7.0,4.0,-100.00,North,5,6.0,7.0,88,0.00,,,-99.99,,2013-02-15 03:42:00,
2013-02-14 20:51:00,7.0,4.0,-100.00,North,10,5.0,9.0,88,0.00,,,-99.99,,2013-02-15 03:51:00,
2013-02-14 21:01:00,7.0,4.0,-100.00,NNE,15,6.0,11.0,88,0.00,,,-99.99,,2013-02-15 04:01:00,
2013-02-14 21:11:00,7.0,4.0,-100.00,NE,40,6.0,11.0,88,0.00,,,-99.99,,2013-02-15 04:11:00,
2013-02-14 21:21:00,7.0,4.0,-100.00,NE,35,4.0,8.0,88,0.00,,,-99.99,,2013-02-15 04:21:00,
2013-02-14 21:32:00,6.0,4.0,-100.00,NNE,20,4.0,9.0,87,0.00,,,-99.99,,2013-02-15 04:32:00,
2013-02-14 21:42:00,6.0,3.0,-100.00,NNE,15,4.0,9.0,87,0.00,,,-99.99,,2013-02-15 04:42:00,
2013-02-14 21:52:00,6.0,3.0,-100.00,NE,40,5.0,8.0,87,0.00,,,-99.99,,2013-02-15 04:52:00,
2013-02-14 22:02:00,6.0,3.0,-100.00,North,0,6.0,11.0,87,0.00,,,-99.99,,2013-02-15 05:02:00,
2013-02-14 22:12:00,6.0,3.0,-100.00,NNE,25,4.0,9.0,87,0.00,,,-99.99,,2013-02-15 05:12:00,
2013-02-14 22:22:00,6.0,3.0,-100.00,NE,50,4.0,9.0,87,0.00,,,-99.99,,2013-02-15 05:22:00,
2013-02-14 22:32:00,5.0,2.0,-100.00,NNE,25,4.0,7.0,87,0.00,,,-99.99,,2013-02-15 05:32:00,
2013-02-14 22:42:00,5.0,2.0,-100.00,NE,40,6.0,7.0,87,0.00,,,-99.99,,2013-02-15 05:42:00,
2013-02-14 22:52:00,5.0,2.0,-100.00,ENE,60,4.0,7.0,87,0.00,,,-99.99,,2013-02-15 05:52:00,
2013-02-14 23:02:00,5.0,2.0,-100.00,NW,320,3.0,7.0,87,0.00,,,-99.99,,2013-02-15 06:02:00,
2013-02-14 23:11:00,5.0,2.0,-100.00,NE,50,5.0,9.0,87,0.00,,,-99.99,,2013-02-15 06:11:00,
2013-02-14 23:22:00,4.0,1.0,-100.00,NNE,20,4.0,9.0,87,0.00,,,-99.99,,2013-02-15 06:22:00,
2013-02-14 23:32:00,4.0,1.0,-100.00,NNE,30,3.0,6.0,87,0.00,,,-99.99,,2013-02-15 06:32:00,
2013-02-14 23:42:00,4.0,1.0,-100.00,ENE,60,4.0,6.0,87,0.00,,,-99.99,,2013-02-15 06:42:00,
2013-02-14 23:51:00,4.0,1.0,-100.00,ESE,110,2.0,5.0,87,0.00,,,-99.99,,2013-02-15 06:51:00,